Regional Weather Roundup
Issued by NWS

Home | Current Version | Previous Version | Text Only | Print | Product List | Glossary Off
Versions: 1 2 3 4 5 6 7 8 9 10 11 12 13 14 15 16 17 18 19 20 21 22 23 24 25 26 27 28 29 30 31 32 33 34 35 36 37 38 39 40 41 42 43 44 45 46 47 48 49 50

000
ASUS45 KPSR 301600
RWRAZ

PRELIMINARY ARIZONA REGIONAL HOURLY WEATHER ROUNDUP
NATIONAL WEATHER SERVICE PHOENIX AZ
900 AM MST FRI JAN 30 2015

NOTE: FAIR INDICATES FEW OR NO CLOUDS BELOW 12,000 FEET WITH NO
SIGNIFICANT WEATHER AND/OR OBSTRUCTIONS TO VISIBILITY.

AZZ001>003-036-301700-
NORTHWEST ARIZONA

CITY           SKY/WX    TMP DP  RH WIND       PRES   REMARKS
KINGMAN        LGT RAIN  47  45  93 N9        29.92F
$$

AZZ004>008-015-016-018-301700-
NORTH CENTRAL ARIZONA

CITY           SKY/WX    TMP DP  RH WIND       PRES   REMARKS
GRAND CANYON   LGT RAIN  37  34  89 E10       30.01F FOG     WCI  30
PRESCOTT       CLOUDY    46  43  89 SE8       29.94F FOG
FLAGSTAFF      NOT AVBL
PAYSON         LGT RAIN  43  43 100 CALM      30.01F
$$

AZZ009>014-017-301700-
NORTHEAST ARIZONA

CITY           SKY/WX    TMP DP  RH WIND       PRES   REMARKS
WINSLOW        NOT AVBL
SAINT JOHNS    LGT RAIN  43  38  82 E12       30.03F
WINDOW ROCK    LGT SNOW  33  29  85 E3        30.13F VSB 1
SHOW LOW       LGT RAIN  41  37  87 S21       30.05F
$$

AZZ023-301700-
GREATER PHOENIX AREA

CITY           SKY/WX    TMP DP  RH WIND       PRES   REMARKS
PHOENIX        LGT RAIN  57  56  96 E12       29.89S FOG
GLENDALE       DRIZZLE   57  57 100 E8        29.91S
DEER VALLEY    LGT RAIN  56  55  97 E10       29.90S FOG
SCOTTSDALE     LGT RAIN  56  53  90 E7        29.93R FOG
MESA-FALCON    CLOUDY    54  54 100 N7        29.91F
MESA-GATEWAY   CLOUDY    55  54  94 CALM      29.93F
CHANDLER       CLOUDY    57  55  94 E14G22    29.91F
$$

AZZ027-028-301700-
SOUTHWEST MARICOPA COUNTY AND PINAL COUNTY

CITY           SKY/WX    TMP DP  RH WIND       PRES   REMARKS
CASA GRANDE    CLOUDY    55  54  94 E6        29.91S
GILA BEND      LGT RAIN  56  57 100 CALM      29.91S
$$

AZZ503-504-507>509-301700-
SOUTHEAST ARIZONA

CITY           SKY/WX    TMP DP  RH WIND       PRES   REMARKS
TUCSON         CLOUDY    59  52  77 SE13      29.94F
DAVIS-MONTHAN  CLOUDY    58  53  84 E8        29.92F
RYAN FIELD       N/A     57  57 100 E13       29.93F
NOGALES        LGT RAIN  54  49  83 S12       29.96S
SIERRA VISTA   RAIN      48  48 100 SE17      30.01F FOG
SAFFORD        LGT RAIN  47  45  93 SE9       30.11R FOG
$$

AZZ020-021-025-026-031-301700-
SOUTHWEST ARIZONA

CITY           SKY/WX    TMP DP  RH WIND       PRES   REMARKS
YUMA           NOT AVBL
$$

CAZ031-033-041-043-047-048-061-301700-
SOUTHERN CALIFORNIA

CITY           SKY/WX    TMP DP  RH WIND       PRES   REMARKS
DOWNTOWN L.A.  LGT RAIN  61  53  75 E5        29.93R
L.A. AIRPORT   LGT RAIN  62  50  64 CALM      29.92S
SAN DIEGO      CLOUDY    61  55  81 CALM      29.94S
BURBANK        LGT RAIN  59  51  75 CALM      29.92S
ONTARIO        CLOUDY    58  50  75 NW5       29.92F
RIVERSIDE      CLOUDY    58  46  64 CALM      29.93F
PALM SPRINGS   CLOUDY    60  52  74 SW6       29.96S
EL CENTRO NAS  CLOUDY    58  53  84 SW5       29.92S
IMPERIAL       CLOUDY    57  54  89 CALM      29.92R
BLYTHE         CLOUDY    57  55  93 N10       29.91F
$$

NVZ020-UTZ003-301700-
SOUTHERN NEVADA-UTAH

CITY           SKY/WX    TMP DP  RH WIND       PRES   REMARKS
LAS VEGAS      NOT AVBL
SALT LAKE CITY PTSUNNY   38  36  92 CALM      30.13F
$$

NMZ009-TXZ055-301700-
NEW MEXICO-WEST TEXAS

CITY           SKY/WX    TMP DP  RH WIND       PRES   REMARKS
ALBUQUERQUE    LGT SNOW  34  30  85 E20       30.27S FOG     WCI  23
EL PASO        CLOUDY    42  36  79 NE8       30.24S
$$


........................KEY........................
SKY/WX - SKY CONDITION/WEATHER
TMP    - TEMPERATURE IN FAHRENHEIT
DP     - DEW POINT IN FAHRENHEIT
RH     - RELATIVE HUMIDITY IN PERCENT
WIND   - DIRECTION AND SPEED IN MILES PER HOUR (MPH)
VRB    - VARIABLE WIND DIRECTION
PRES   - MEAN SEA LEVEL PRESSURE IN INCHES OF MERCURY
         F - FALLING PRESSURE   R - RISING PRESSURE
         S - STEADY PRESSURE
VSB    - VISIBILITY IN MILES
HX     - HEAT INDEX IN FAHRENHEIT
WCI    - WIND CHILL INDEX IN FAHRENHEIT
TC     - TEMPERATURE IN CELSIUS WHICH IS ALSO KNOWN AS
         TEMPERATURE IN CENTIGRADE
AFB    - AIR FORCE BASE
         LUKE AFB IS LUKE AIR FORCE BASE
         DAVIS-MONTHAN IS DAVIS-MONTHAN AIR FORCE BASE
NAS    - NAVAL AIR STATION
         EL CENTRO NAS IS EL CENTRO NAVAL AIR STATION
N/A    - NOT AVAILABLE


USA.gov is the U.S. government's official web portal to all federal, state and local government web resources and services.